Location: Little Buffalo State Park
(40.4572°N, 77.1689°W)
Time: 14:47:50
(UTC-04:00)

Hubble Space Telescope - Visible Passes

Search period start: 23 March 2019 00:00
Search period end: 02 April 2019 00:00
Orbit: 537 x 540 km, 28.5° (Epoch: 22 March)

Date Brightness Start Highest point End Pass type
(mag) Time Alt. Az. Time Alt. Az. Time Alt. Az.
25 Mar 3.0 20:52:20 10° SSW 20:53:49 12° S 20:53:49 12° S visible
26 Mar 2.8 20:41:23 10° SSW 20:43:27 13° S 20:44:06 13° SSE visible
27 Mar 2.8 20:30:34 10° SSW 20:32:50 14° S 20:34:20 12° SSE visible
28 Mar 2.9 20:19:49 10° SSW 20:22:13 15° S 20:24:32 10° SE visible
29 Mar 2.9 20:09:09 10° SW 20:11:37 15° S 20:14:06 10° SE visible
30 Mar 2.9 19:58:33 10° SW 20:01:00 15° S 20:03:29 10° SE visible
